1 Minute Report
Date Time Wind Direction Wind Speed Wind Gust Wind Variable Altimeter Temperature Dewpoint Relative Humidity Visibility Ceiling Precip Present Weather Density Alt Wind Chill Heat Index
17/04/29 07:29 000 00 N/A N/A 29.99 60(F), 16(C) 46(F), 8(C) 59% 10 SCT060 OVC080 N/A N/A N/A 60 F N/A 8309
17/04/29 07:28 000 00 N/A N/A 29.99 60(F), 16(C) 46(F), 8(C) 59% 10 SCT060 OVC080 N/A N/A N/A 60 F N/A 8308
17/04/29 07:27 000 00 N/A N/A 29.99 60(F), 16(C) 46(F), 8(C) 59% 10 SCT060 OVC080 N/A N/A N/A 60 F N/A 8307
17/04/29 07:26 000 00 N/A N/A 29.99 60(F), 16(C) 46(F), 8(C) 59% 10 SCT070 OVC080 N/A N/A N/A 60 F N/A 8306
17/04/29 07:25 000 00 N/A N/A 30.00 60(F), 16(C) 46(F), 8(C) 59% 10 SCT065 BKN070 OVC080 N/A N/A N/A 60 F N/A 8305
17/04/29 07:24 000 00 N/A N/A 30.00 60(F), 16(C) 46(F), 8(C) 59% 10 SCT065 OVC080 N/A N/A N/A 60 F N/A 8304
17/04/29 07:23 140 03 N/A N/A 30.00 60(F), 16(C) 46(F), 8(C) 59% 10 SCT065 OVC080 N/A N/A N/A 60 F N/A 8303
17/04/29 07:22 000 00 N/A N/A 30.00 60(F), 16(C) 46(F), 8(C) 59% 10 SCT065 OVC080 N/A N/A N/A 60 F N/A 8302
17/04/29 07:21 000 00 N/A N/A 30.00 60(F), 16(C) 46(F), 8(C) 59% 10 SCT065 OVC080 N/A N/A N/A 60 F N/A 8301
17/04/29 07:20 150 03 N/A N/A 30.00 60(F), 16(C) 46(F), 8(C) 59% 10 BKN065 OVC080 N/A N/A N/A 60 F N/A 8300
17/04/29 07:19 150 03 N/A N/A 30.00 60(F), 16(C) 46(F), 8(C) 59% 10 BKN065 OVC090 N/A N/A N/A 60 F N/A 8299
17/04/29 07:18 150 03 N/A N/A 30.00 60(F), 16(C) 47(F), 8(C) 59% 10 BKN065 OVC090 N/A N/A N/A 60 F N/A 8298
17/04/29 07:17 150 03 N/A N/A 30.00 60(F), 16(C) 47(F), 8(C) 59% 10 OVC065 N/A N/A N/A 60 F N/A 8297
17/04/29 07:16 150 04 N/A N/A 30.00 60(F), 16(C) 47(F), 8(C) 59% 10 SCT065 OVC075 N/A N/A N/A 60 F N/A 8296
17/04/29 07:15 160 04 N/A N/A 30.00 60(F), 16(C) 47(F), 8(C) 59% 10 SCT065 OVC075 N/A N/A N/A 60 F N/A 8295
17/04/29 07:14 160 04 N/A N/A 30.00 61(F), 16(C) 46(F), 8(C) 59% 10 OVC075 N/A N/A N/A 61 F N/A 8294
17/04/29 07:13 160 04 N/A N/A 30.00 61(F), 16(C) 46(F), 8(C) 59% 10 OVC075 N/A N/A N/A 61 F N/A 8293
17/04/29 07:12 160 04 N/A N/A 30.00 61(F), 16(C) 46(F), 8(C) 59% 10 OVC075 N/A N/A N/A 61 F N/A 8292
17/04/29 07:11 150 05 N/A N/A 30.00 61(F), 16(C) 46(F), 8(C) 59% 10 OVC075 N/A N/A N/A 61 F N/A 8291
17/04/29 07:10 150 05 N/A N/A 30.00 61(F), 16(C) 46(F), 8(C) 59% 10 OVC075 N/A N/A N/A 61 F N/A 8290
17/04/29 07:09 150 04 N/A N/A 30.00 61(F), 16(C) 46(F), 8(C) 59% 10 OVC075 N/A N/A N/A 61 F N/A 8289
17/04/29 07:08 150 04 N/A N/A 30.00 61(F), 16(C) 46(F), 8(C) 59% 10 OVC075 N/A N/A N/A 61 F N/A 8288
17/04/29 07:07 150 04 N/A N/A 30.00 61(F), 16(C) 46(F), 8(C) 59% 10 OVC075 N/A N/A N/A 61 F N/A 8287
17/04/29 07:06 150 03 N/A N/A 30.01 61(F), 16(C) 46(F), 8(C) 59% 10 OVC075 N/A N/A N/A 61 F N/A 8286
17/04/29 07:05 140 03 N/A N/A 30.01 61(F), 16(C) 45(F), 7(C) 55% 10 OVC075 N/A N/A N/A 61 F N/A 8285
17/04/29 07:04 000 00 N/A N/A 30.01 61(F), 16(C) 45(F), 7(C) 55% 10 OVC075 N/A N/A N/A 61 F N/A 8284
17/04/29 07:03 000 00 N/A N/A 30.01 61(F), 16(C) 45(F), 7(C) 55% 10 OVC075 N/A N/A N/A 61 F N/A 8283
17/04/29 07:02 000 00 N/A N/A 30.01 61(F), 16(C) 44(F), 7(C) 55% 10 OVC075 N/A N/A N/A 61 F N/A 8282
17/04/29 07:01 000 00 N/A N/A 30.01 61(F), 16(C) 45(F), 7(C) 55% 10 OVC075 N/A N/A N/A 61 F N/A 8281
17/04/29 07:00 150 03 N/A N/A 30.01 60(F), 16(C) 45(F), 7(C) 55% 10 OVC075 N/A N/A N/A 60 F N/A 8280
17/04/29 06:59 150 03 N/A N/A 30.01 60(F), 16(C) 45(F), 7(C) 55% 10 OVC075 N/A N/A N/A 60 F N/A 8279
17/04/29 06:58 150 03 N/A N/A 30.01 60(F), 16(C) 45(F), 7(C) 55% 10 OVC075 N/A N/A N/A 60 F N/A 8278
17/04/29 06:57 000 00 N/A N/A 30.02 60(F), 16(C) 46(F), 8(C) 59% 10 OVC075 N/A N/A N/A 60 F N/A 8277
17/04/29 06:56 000 00 N/A N/A 30.02 61(F), 16(C) 45(F), 7(C) 55% 10 OVC075 N/A N/A N/A 61 F N/A 8276
17/04/29 06:55 000 00 N/A N/A 30.02 61(F), 16(C) 45(F), 7(C) 55% 10 OVC075 N/A N/A N/A 61 F N/A 8275
17/04/29 06:54 000 00 N/A N/A 30.02 61(F), 16(C) 45(F), 7(C) 55% 10 OVC075 N/A N/A N/A 61 F N/A 8274
17/04/29 06:53 000 00 N/A N/A 30.02 61(F), 16(C) 45(F), 7(C) 55% 10 OVC075 N/A N/A N/A 61 F N/A 8273
17/04/29 06:52 000 00 N/A N/A 30.02 61(F), 16(C) 44(F), 7(C) 55% 10 OVC075 N/A N/A N/A 61 F N/A 8272
17/04/29 06:51 000 00 N/A N/A 30.02 61(F), 16(C) 44(F), 7(C) 55% 10 OVC075 N/A N/A N/A 61 F N/A 8271
17/04/29 06:50 000 00 N/A N/A 30.02 61(F), 16(C) 45(F), 7(C) 55% 10 OVC075 N/A N/A N/A 61 F N/A 8270
17/04/29 06:49 000 00 N/A N/A 30.02 60(F), 16(C) 45(F), 7(C) 55% 10 OVC075 N/A N/A N/A 60 F N/A 8269
17/04/29 06:48 000 00 N/A N/A 30.02 60(F), 16(C) 45(F), 7(C) 55% 10 OVC075 N/A N/A N/A 60 F N/A 8268
17/04/29 06:47 000 00 N/A N/A 30.02 60(F), 16(C) 46(F), 8(C) 59% 10 OVC075 N/A N/A N/A 60 F N/A 8267
17/04/29 06:46 000 00 N/A N/A 30.02 60(F), 16(C) 46(F), 8(C) 59% 10 OVC075 N/A N/A N/A 60 F N/A 8266
17/04/29 06:45 000 00 N/A N/A 30.02 60(F), 16(C) 46(F), 8(C) 59% 10 OVC075 N/A N/A N/A 60 F N/A 8265
17/04/29 06:44 000 00 N/A N/A 30.02 60(F), 16(C) 46(F), 8(C) 59% 10 OVC085 N/A N/A N/A 60 F N/A 8264
17/04/29 06:43 000 00 N/A N/A 30.02 60(F), 16(C) 46(F), 8(C) 59% 10 BKN080 OVC085 N/A N/A N/A 60 F N/A 8263
17/04/29 06:42 000 00 N/A N/A 30.01 60(F), 16(C) 45(F), 7(C) 55% 10 BKN080 OVC085 N/A N/A N/A 60 F N/A 8262
17/04/29 06:41 000 00 N/A N/A 30.01 60(F), 16(C) 46(F), 8(C) 59% 10 BKN080 OVC085 N/A N/A N/A 60 F N/A 8261
17/04/29 06:40 000 00 N/A N/A 30.01 60(F), 16(C) 46(F), 8(C) 59% 10 OVC080 N/A N/A N/A 60 F N/A 8260
17/04/29 06:39 000 00 N/A N/A 30.02 60(F), 16(C) 46(F), 8(C) 59% 10 OVC080 N/A N/A N/A 60 F N/A 8259
17/04/29 06:38 000 00 N/A N/A 30.02 60(F), 16(C) 46(F), 8(C) 59% 10 OVC080 N/A N/A N/A 60 F N/A 8258
17/04/29 06:37 000 00 N/A N/A 30.02 60(F), 16(C) 46(F), 8(C) 59% 10 OVC080 N/A N/A N/A 60 F N/A 8257
17/04/29 06:36 000 00 N/A N/A 30.02 60(F), 16(C) 47(F), 8(C) 59% 10 OVC080 N/A N/A N/A 60 F N/A 8256
17/04/29 06:35 000 00 N/A N/A 30.02 60(F), 16(C) 47(F), 8(C) 59% 10 OVC080 N/A N/A N/A 60 F N/A 8255
17/04/29 06:34 000 00 N/A N/A 30.01 60(F), 16(C) 47(F), 8(C) 59% 10 OVC080 N/A N/A N/A 60 F N/A 8254
17/04/29 06:33 000 00 N/A N/A 30.01 61(F), 16(C) 46(F), 8(C) 59% 10 OVC080 N/A N/A N/A 61 F N/A 8253
17/04/29 06:32 000 00 N/A N/A 30.01 61(F), 16(C) 46(F), 8(C) 59% 10 OVC080 N/A N/A N/A 61 F N/A 8252
17/04/29 06:31 000 00 N/A N/A 30.01 61(F), 16(C) 46(F), 8(C) 59% 10 OVC080 N/A N/A N/A 61 F N/A 8251
17/04/29 06:30 000 00 N/A N/A 30.01 61(F), 16(C) 46(F), 8(C) 59% 10 OVC080 N/A N/A N/A 61 F N/A 8250
17/04/29 06:29 000 00 N/A N/A 30.01 61(F), 16(C) 46(F), 8(C) 59% 10 OVC080 N/A N/A N/A 61 F N/A 8249
17/04/29 06:28 000 00 N/A N/A 30.01 61(F), 16(C) 46(F), 8(C) 59% 10 OVC080 N/A N/A N/A 61 F N/A 8248
17/04/29 06:27 000 00 N/A N/A 30.01 61(F), 16(C) 46(F), 8(C) 59% 10 OVC080 N/A N/A N/A 61 F N/A 8247
17/04/29 06:26 000 00 N/A N/A 30.01 61(F), 16(C) 45(F), 7(C) 55% 10 OVC080 N/A N/A N/A 61 F N/A 8246
17/04/29 06:25 180 03 N/A N/A 30.01 60(F), 16(C) 45(F), 7(C) 55% 10 OVC080 N/A N/A N/A 60 F N/A 8245
17/04/29 06:24 180 03 N/A N/A 30.01 60(F), 16(C) 45(F), 7(C) 55% 10 OVC080 N/A N/A N/A 60 F N/A 8244
17/04/29 06:23 180 03 N/A N/A 30.01 60(F), 16(C) 46(F), 8(C) 59% 10 OVC080 N/A N/A N/A 60 F N/A 8243
17/04/29 06:22 180 03 N/A N/A 30.01 60(F), 16(C) 46(F), 8(C) 59% 10 OVC080 N/A N/A N/A 60 F N/A 8242
17/04/29 06:21 180 03 N/A N/A 30.01 60(F), 16(C) 47(F), 8(C) 59% 10 OVC080 N/A N/A N/A 60 F N/A 8241
17/04/29 06:20 000 00 N/A N/A 30.01 60(F), 16(C) 47(F), 8(C) 59% 10 OVC080 N/A N/A N/A 60 F N/A 8240
17/04/29 06:19 000 00 N/A N/A 30.01 60(F), 16(C) 47(F), 8(C) 59% 10 OVC080 N/A N/A N/A 60 F N/A 8239
17/04/29 06:18 000 00 N/A N/A 30.01 60(F), 16(C) 48(F), 9(C) 63% 10 OVC080 N/A N/A N/A 60 F N/A 8238
17/04/29 06:17 000 00 N/A N/A 30.01 60(F), 16(C) 48(F), 9(C) 63% 10 OVC080 N/A N/A N/A 60 F N/A 8237
17/04/29 06:16 000 00 N/A N/A 30.01 60(F), 16(C) 48(F), 9(C) 63% 10 OVC080 N/A N/A N/A 60 F N/A 8236
17/04/29 06:15 160 03 N/A N/A 30.01 60(F), 16(C) 49(F), 9(C) 63% 10 OVC080 N/A N/A N/A 60 F N/A 8235
17/04/29 06:14 160 03 N/A N/A 30.01 60(F), 16(C) 49(F), 9(C) 63% 10 OVC080 N/A N/A N/A 60 F N/A 8234
17/04/29 06:13 160 03 N/A N/A 30.01 60(F), 16(C) 48(F), 9(C) 63% 10 OVC080 N/A N/A N/A 60 F N/A 8233
17/04/29 06:12 000 00 N/A N/A 30.01 60(F), 16(C) 48(F), 9(C) 63% 10 OVC080 N/A N/A N/A 60 F N/A 8232
17/04/29 06:11 000 00 N/A N/A 30.01 60(F), 16(C) 47(F), 8(C) 59% 10 OVC080 N/A N/A N/A 60 F N/A 8231
17/04/29 06:10 000 00 N/A N/A 30.01 60(F), 16(C) 47(F), 8(C) 59% 10 OVC080 N/A N/A N/A 60 F N/A 8230
17/04/29 06:09 000 00 N/A N/A 30.01 60(F), 16(C) 46(F), 8(C) 59% 10 OVC080 N/A N/A N/A 60 F N/A 8229
17/04/29 06:08 000 00 N/A N/A 30.01 60(F), 16(C) 46(F), 8(C) 59% 10 OVC080 N/A N/A N/A 60 F N/A 8228
17/04/29 06:07 000 00 N/A N/A 30.01 60(F), 16(C) 46(F), 8(C) 59% 10 OVC080 N/A N/A N/A 60 F N/A 8227
17/04/29 06:06 000 00 N/A N/A 30.01 59(F), 15(C) 47(F), 8(C) 63% 10 OVC080 N/A N/A N/A 59 F N/A 8226
17/04/29 06:05 000 00 N/A N/A 30.01 59(F), 15(C) 48(F), 9(C) 67% 10 OVC090 N/A N/A N/A 59 F N/A 8225
17/04/29 06:04 000 00 N/A N/A 30.01 60(F), 16(C) 49(F), 9(C) 63% 10 OVC090 N/A N/A N/A 60 F N/A 8224
17/04/29 06:03 000 00 N/A N/A 30.01 60(F), 16(C) 49(F), 9(C) 63% 10 OVC090 N/A N/A N/A 60 F N/A 8223
17/04/29 06:02 000 00 N/A N/A 30.01 60(F), 16(C) 48(F), 9(C) 63% 10 OVC090 N/A N/A N/A 60 F N/A 8222
17/04/29 06:01 000 00 N/A N/A 30.02 60(F), 16(C) 47(F), 8(C) 59% 10 OVC090 N/A N/A N/A 60 F N/A 8221
17/04/29 06:00 000 00 N/A N/A 30.02 60(F), 16(C) 46(F), 8(C) 59% 10 OVC090 N/A N/A N/A 60 F N/A 8220
17/04/29 05:59 000 00 N/A N/A 30.02 60(F), 16(C) 46(F), 8(C) 59% 10 OVC090 N/A N/A N/A 60 F N/A 8219
17/04/29 05:58 000 00 N/A N/A 30.02 60(F), 16(C) 46(F), 8(C) 59% 10 OVC090 N/A N/A N/A 60 F N/A 8218
17/04/29 05:57 000 00 N/A N/A 30.02 59(F), 15(C) 47(F), 8(C) 63% 10 OVC090 N/A N/A N/A 59 F N/A 8217
17/04/29 05:56 000 00 N/A N/A 30.01 59(F), 15(C) 47(F), 8(C) 63% 10 OVC090 N/A N/A N/A 59 F N/A 8216
17/04/29 05:55 000 00 N/A N/A 30.01 60(F), 16(C) 47(F), 8(C) 59% 10 OVC090 N/A N/A N/A 60 F N/A 8215
17/04/29 05:54 000 00 N/A N/A 30.01 60(F), 16(C) 47(F), 8(C) 59% 10 OVC090 N/A N/A N/A 60 F N/A 8214
17/04/29 05:53 000 00 N/A N/A 30.01 60(F), 16(C) 46(F), 8(C) 59% 10 OVC090 N/A N/A N/A 60 F N/A 8213
17/04/29 05:52 000 00 N/A N/A 30.01 61(F), 16(C) 46(F), 8(C) 59% 10 OVC090 N/A N/A N/A 61 F N/A 8212
17/04/29 05:51 000 00 N/A N/A 30.02 61(F), 16(C) 45(F), 7(C) 55% 10 OVC090 N/A N/A N/A 61 F N/A 8211
17/04/29 05:50 000 00 N/A N/A 30.01 61(F), 16(C) 44(F), 7(C) 55% 10 OVC090 N/A N/A N/A 61 F N/A 8210
17/04/29 05:49 000 00 N/A N/A 30.01 61(F), 16(C) 44(F), 7(C) 55% 10 OVC090 N/A N/A N/A 61 F N/A 8209
17/04/29 05:48 000 00 N/A N/A 30.01 62(F), 17(C) 44(F), 7(C) 52% 10 OVC090 N/A N/A N/A 62 F N/A 8208
17/04/29 05:47 000 00 N/A N/A 30.01 62(F), 17(C) 44(F), 7(C) 52% 10 OVC090 N/A N/A N/A 62 F N/A 8207
17/04/29 05:46 000 00 N/A N/A 30.01 62(F), 17(C) 45(F), 7(C) 52% 10 OVC090 N/A N/A N/A 62 F N/A 8206
17/04/29 05:45 000 00 N/A N/A 30.01 62(F), 17(C) 45(F), 7(C) 52% 10 OVC090 N/A N/A N/A 62 F N/A 8205
17/04/29 05:44 000 00 N/A N/A 30.01 62(F), 17(C) 44(F), 7(C) 52% 10 OVC090 N/A N/A N/A 62 F N/A 8204
17/04/29 05:43 000 00 N/A N/A 30.01 62(F), 17(C) 44(F), 7(C) 52% 10 OVC090 N/A N/A N/A 62 F N/A 8203
17/04/29 05:42 000 00 N/A N/A 30.01 62(F), 17(C) 44(F), 7(C) 52% 10 OVC090 N/A N/A N/A 62 F N/A 8202
17/04/29 05:41 000 00 N/A N/A 30.01 62(F), 17(C) 44(F), 7(C) 52% 10 OVC090 N/A N/A N/A 62 F N/A 8201
17/04/29 05:40 000 00 N/A N/A 30.01 62(F), 17(C) 44(F), 7(C) 52% 10 OVC090 N/A N/A N/A 62 F N/A 8200
17/04/29 05:39 190 03 N/A N/A 30.01 62(F), 17(C) 44(F), 7(C) 52% 10 BKN090 OVC110 N/A N/A N/A 62 F N/A 8199
17/04/29 05:38 180 04 N/A N/A 30.02 62(F), 17(C) 44(F), 7(C) 52% 10 BKN090 OVC110 N/A N/A N/A 62 F N/A 8198
17/04/29 05:37 180 03 N/A N/A 30.02 62(F), 17(C) 44(F), 7(C) 52% 10 BKN090 OVC110 N/A N/A N/A 62 F N/A 8197
17/04/29 05:36 170 03 N/A N/A 30.01 62(F), 17(C) 44(F), 7(C) 52% 10 OVC090 N/A N/A N/A 62 F N/A 8196
17/04/29 05:35 170 04 N/A N/A 30.01 62(F), 17(C) 44(F), 7(C) 52% 10 OVC090 N/A N/A N/A 62 F N/A 8195
17/04/29 05:34 170 03 N/A N/A 30.01 62(F), 17(C) 44(F), 7(C) 52% 10 BKN090 OVC110 N/A N/A N/A 62 F N/A 8194
17/04/29 05:33 160 03 N/A N/A 30.02 63(F), 17(C) 44(F), 7(C) 52% 10 BKN090 OVC110 N/A N/A N/A 63 F N/A 8193
17/04/29 05:32 160 03 N/A N/A 30.02 63(F), 17(C) 44(F), 7(C) 52% 10 OVC100 N/A N/A N/A 63 F N/A 8192
17/04/29 05:31 170 03 N/A N/A 30.02 63(F), 17(C) 44(F), 7(C) 52% 10 OVC100 N/A N/A N/A 63 F N/A 8191
17/04/29 05:30 000 00 N/A N/A 30.02 62(F), 17(C) 43(F), 6(C) 48% 10 OVC100 N/A N/A N/A 62 F N/A 8190
17/04/29 05:29 170 03 N/A N/A 30.02 62(F), 17(C) 43(F), 6(C) 48% 10 OVC100 N/A N/A N/A 62 F N/A 8189